Location: Coed Ely
(51.5661°N, 3.4150°W)
Time: 23:56:04
(UTC+00:00)

Cosmos 405 - Pass Details

Date: 28 January 2021
Orbit: 448 x 462 km, 81.3° (Epoch: 01 March)

Event Time Altitude Azimuth Distance (km) Brightness Sun altitude
Rises 18:15:31 0° 348° (NNW) 2,507 6.7 -12.3°
Reaches altitude 10° 18:17:37 10° 350° (N) 1,625 5.7 -12.6°
Maximum altitude 18:21:10 78° 77° (ENE) 479 2.8 -13.2°
Drops below altitude 10° 18:24:41 10° 164° (SSE) 1,603 5.7 -13.7°
Sets 18:26:44 0° 166° (SSE) 2,470 6.6 -14.0°
